Time,TemperatureF,DewpointF,PressureIn,WindDirection,WindDirectionDegrees,WindSpeedMPH,WindSpeedGustMPH,Humidity,HourlyPrecipIn,Conditions,Clouds,dailyrainin,SoftwareType,DateUTC
2013-05-27 00:01:00,78.2,69.2,29.94,SE,140,5.0,7.0,74,0.00,,,0.00,VWS V14.01,2013-05-27 05:01:00,
2013-05-27 00:06:00,78.1,69.1,29.94,SSE,161,5.0,10.0,74,0.00,,,0.00,VWS V14.01,2013-05-27 05:06:00,
2013-05-27 00:11:00,78.0,69.1,29.94,South,191,2.0,7.0,74,0.00,,,0.00,VWS V14.01,2013-05-27 05:11:00,
2013-05-27 00:16:00,77.9,68.9,29.94,SE,140,1.0,8.0,74,0.00,,,0.00,VWS V14.01,2013-05-27 05:16:00,
2013-05-27 00:21:00,77.8,68.9,29.94,SE,144,2.0,7.0,74,0.00,,,0.00,VWS V14.01,2013-05-27 05:21:00,
2013-05-27 00:26:00,77.8,68.9,29.94,SSW,201,4.0,7.0,74,0.00,,,0.00,VWS V14.01,2013-05-27 05:26:00,
2013-05-27 00:31:00,77.7,68.8,29.93,SE,131,3.0,9.0,74,0.00,,,0.00,VWS V14.01,2013-05-27 05:31:00,
2013-05-27 00:36:00,77.7,68.8,29.93,SSE,160,0.0,5.0,74,0.00,,,0.00,VWS V14.01,2013-05-27 05:36:00,
2013-05-27 00:41:00,77.6,68.7,29.93,SE,132,8.0,14.0,74,0.00,,,0.00,VWS V14.01,2013-05-27 05:41:00,
2013-05-27 00:46:00,77.5,68.6,29.93,SE,142,1.0,15.0,74,0.00,,,0.00,VWS V14.01,2013-05-27 05:46:00,
2013-05-27 00:51:00,77.5,68.6,29.93,SSE,161,3.0,7.0,74,0.00,,,0.00,VWS V14.01,2013-05-27 05:51:00,
2013-05-27 00:56:00,77.4,68.1,29.93,SE,139,8.0,12.0,73,0.00,,,0.00,VWS V14.01,2013-05-27 05:56:00,
2013-05-27 01:01:00,77.3,68.4,29.93,SE,136,5.0,9.0,74,0.00,,,0.00,VWS V14.01,2013-05-27 06:01:00,
2013-05-27 01:06:00,77.3,68.4,29.93,ESE,119,1.0,7.0,74,0.00,,,0.00,VWS V14.01,2013-05-27 06:06:00,
2013-05-27 01:11:00,77.3,68.4,29.93,SSE,148,6.0,9.0,74,0.00,,,0.00,VWS V14.01,2013-05-27 06:11:00,
2013-05-27 01:16:00,77.2,68.3,29.93,SSE,164,7.0,7.0,74,0.00,,,0.00,VWS V14.01,2013-05-27 06:16:00,
2013-05-27 01:21:00,77.1,68.6,29.93,SSE,168,3.0,9.0,75,0.00,,,0.00,VWS V14.01,2013-05-27 06:21:00,
2013-05-27 01:26:00,77.0,68.5,29.92,SSW,199,4.0,11.0,75,0.00,,,0.00,VWS V14.01,2013-05-27 06:26:00,
2013-05-27 01:31:00,76.9,68.4,29.93,SSE,164,12.0,13.0,75,0.00,,,0.00,VWS V14.01,2013-05-27 06:31:00,
2013-05-27 01:36:00,76.9,68.4,29.92,South,174,3.0,11.0,75,0.00,,,0.00,VWS V14.01,2013-05-27 06:36:00,
2013-05-27 01:41:00,76.9,68.4,29.92,SSE,165,5.0,9.0,75,0.00,,,0.00,VWS V14.01,2013-05-27 06:41:00,
2013-05-27 01:46:00,76.8,68.7,29.92,South,171,6.0,9.0,76,0.00,,,0.00,VWS V14.01,2013-05-27 06:46:00,
2013-05-27 01:51:00,76.7,68.6,29.92,South,173,10.0,10.0,76,0.00,,,0.00,VWS V14.01,2013-05-27 06:51:00,
2013-05-27 01:56:00,76.6,68.5,29.92,SSW,192,7.0,10.0,76,0.00,,,0.00,VWS V14.01,2013-05-27 06:56:00,
2013-05-27 02:01:00,76.5,68.8,29.92,South,190,3.0,13.0,77,0.00,,,0.00,VWS V14.01,2013-05-27 07:01:00,
2013-05-27 02:06:00,76.5,68.8,29.92,SSE,165,9.0,11.0,77,0.00,,,0.00,VWS V14.01,2013-05-27 07:06:00,
2013-05-27 02:11:00,76.4,68.7,29.91,South,178,6.0,11.0,77,0.00,,,0.00,VWS V14.01,2013-05-27 07:11:00,
2013-05-27 02:16:00,76.3,68.9,29.91,SSE,165,14.0,14.0,78,0.00,,,0.00,VWS V14.01,2013-05-27 07:16:00,
2013-05-27 02:21:00,76.2,68.8,29.91,South,180,7.0,17.0,78,0.00,,,0.00,VWS V14.01,2013-05-27 07:21:00,
2013-05-27 02:26:00,76.1,68.8,29.91,SE,144,2.0,13.0,78,0.00,,,0.00,VWS V14.01,2013-05-27 07:26:00,
2013-05-27 02:31:00,76.0,68.7,29.91,South,180,1.0,9.0,78,0.00,,,0.00,VWS V14.01,2013-05-27 07:31:00,
2013-05-27 02:36:00,75.9,68.9,29.91,SSE,168,5.0,12.0,79,0.00,,,0.00,VWS V14.01,2013-05-27 07:36:00,
2013-05-27 02:41:00,75.8,68.8,29.91,SSE,164,6.0,12.0,79,0.00,,,0.00,VWS V14.01,2013-05-27 07:41:00,
2013-05-27 02:46:00,75.7,68.7,29.91,South,173,4.0,17.0,79,0.00,,,0.00,VWS V14.01,2013-05-27 07:46:00,
2013-05-27 02:51:00,75.6,68.6,29.91,SSE,154,5.0,13.0,79,0.00,,,0.00,VWS V14.01,2013-05-27 07:51:00,
2013-05-27 02:56:00,75.5,68.5,29.90,SE,145,3.0,8.0,79,0.00,,,0.00,VWS V14.01,2013-05-27 07:56:00,
2013-05-27 03:01:00,75.4,68.4,29.90,SSE,164,6.0,14.0,79,0.00,,,0.00,VWS V14.01,2013-05-27 08:01:00,
2013-05-27 03:06:00,75.4,68.4,29.90,South,178,10.0,10.0,79,0.00,,,0.00,VWS V14.01,2013-05-27 08:06:00,
2013-05-27 03:10:00,75.3,68.3,29.90,SSE,148,8.0,12.0,79,0.00,,,0.00,VWS V14.01,2013-05-27 08:10:00,
2013-05-27 03:15:00,75.2,68.2,29.90,SSW,192,6.0,9.0,79,0.00,,,0.00,VWS V14.01,2013-05-27 08:15:00,
2013-05-27 03:20:00,75.1,68.2,29.90,South,182,7.0,11.0,79,0.00,,,0.00,VWS V14.01,2013-05-27 08:20:00,
2013-05-27 03:25:00,75.0,68.1,29.89,SSE,158,7.0,13.0,79,0.00,,,0.00,VWS V14.01,2013-05-27 08:25:00,
2013-05-27 03:30:00,74.9,67.9,29.89,South,180,4.0,10.0,79,0.00,,,0.00,VWS V14.01,2013-05-27 08:30:00,
2013-05-27 03:35:00,74.8,68.2,29.89,South,178,5.0,11.0,80,0.00,,,0.00,VWS V14.01,2013-05-27 08:35:00,
2013-05-27 03:40:00,74.7,68.1,29.89,SSE,167,5.0,10.0,80,0.00,,,0.00,VWS V14.01,2013-05-27 08:40:00,
2013-05-27 03:45:00,74.5,67.9,29.89,South,169,4.0,12.0,80,0.00,,,0.00,VWS V14.01,2013-05-27 08:45:00,
2013-05-27 03:50:00,74.4,67.8,29.89,SE,145,11.0,11.0,80,0.00,,,0.00,VWS V14.01,2013-05-27 08:50:00,
2013-05-27 03:55:00,74.3,67.7,29.89,South,174,2.0,18.0,80,0.00,,,0.00,VWS V14.01,2013-05-27 08:55:00,
2013-05-27 04:00:00,74.2,68.0,29.89,SSE,148,7.0,14.0,81,0.00,,,0.00,VWS V14.01,2013-05-27 09:00:00,
2013-05-27 04:05:00,74.0,67.8,29.88,SSE,163,5.0,7.0,81,0.00,,,0.00,VWS V14.01,2013-05-27 09:05:00,
2013-05-27 04:10:00,73.9,67.7,29.88,SSE,168,7.0,12.0,81,0.00,,,0.00,VWS V14.01,2013-05-27 09:10:00,
2013-05-27 04:15:00,73.8,68.0,29.88,SSE,149,8.0,14.0,82,0.00,,,0.00,VWS V14.01,2013-05-27 09:15:00,
2013-05-27 04:20:00,73.7,67.9,29.88,SE,140,3.0,5.0,82,0.00,,,0.00,VWS V14.01,2013-05-27 09:20:00,
2013-05-27 04:25:00,73.5,67.7,29.88,SSW,202,7.0,12.0,82,0.00,,,0.00,VWS V14.01,2013-05-27 09:25:00,
2013-05-27 04:30:00,73.4,67.6,29.88,SSE,157,12.0,13.0,82,0.00,,,0.00,VWS V14.01,2013-05-27 09:30:00,
2013-05-27 04:35:00,73.2,67.4,29.88,South,176,4.0,10.0,82,0.00,,,0.00,VWS V14.01,2013-05-27 09:35:00,
2013-05-27 04:40:00,73.1,67.6,29.88,South,188,8.0,9.0,83,0.00,,,0.00,VWS V14.01,2013-05-27 09:40:00,
2013-05-27 04:45:00,73.0,67.5,29.88,South,188,8.0,11.0,83,0.00,,,0.00,VWS V14.01,2013-05-27 09:45:00,
2013-05-27 04:50:00,72.9,67.4,29.88,SSE,167,14.0,14.0,83,0.00,,,0.00,VWS V14.01,2013-05-27 09:50:00,
2013-05-27 04:55:00,72.8,67.3,29.88,SSE,167,10.0,15.0,83,0.00,,,0.00,VWS V14.01,2013-05-27 09:55:00,
2013-05-27 05:00:00,72.7,67.2,29.88,South,188,8.0,12.0,83,0.00,,,0.00,VWS V14.01,2013-05-27 10:00:00,
2013-05-27 05:05:00,72.6,67.2,29.88,SSW,207,7.0,10.0,83,0.00,,,0.00,VWS V14.01,2013-05-27 10:05:00,
2013-05-27 05:10:00,72.5,67.4,29.88,SSE,148,4.0,10.0,84,0.00,,,0.00,VWS V14.01,2013-05-27 10:10:00,
2013-05-27 05:15:00,72.4,67.3,29.87,SSE,157,4.0,12.0,84,0.00,,,0.00,VWS V14.01,2013-05-27 10:15:00,
2013-05-27 05:20:00,72.4,67.3,29.88,SSE,159,10.0,14.0,84,0.00,,,0.00,VWS V14.01,2013-05-27 10:20:00,
2013-05-27 05:25:00,72.2,67.1,29.87,SE,134,11.0,14.0,84,0.00,,,0.00,VWS V14.01,2013-05-27 10:25:00,
2013-05-27 05:30:00,72.2,67.4,29.88,SSE,155,21.0,21.0,85,0.00,,,0.00,VWS V14.01,2013-05-27 10:30:00,
2013-05-27 05:35:00,72.2,67.4,29.88,South,176,3.0,10.0,85,0.00,,,0.00,VWS V14.01,2013-05-27 10:35:00,
2013-05-27 05:40:00,72.1,67.3,29.88,SSW,199,4.0,11.0,85,0.00,,,0.00,VWS V14.01,2013-05-27 10:40:00,
2013-05-27 05:45:00,72.1,67.3,29.88,South,187,14.0,14.0,85,0.00,,,0.00,VWS V14.01,2013-05-27 10:45:00,
2013-05-27 05:50:00,72.0,67.2,29.88,South,173,6.0,18.0,85,0.00,,,0.00,VWS V14.01,2013-05-27 10:50:00,
2013-05-27 05:55:00,71.9,67.2,29.88,SE,131,4.0,9.0,85,0.00,,,0.00,VWS V14.01,2013-05-27 10:55:00,
2013-05-27 06:00:00,71.9,67.2,29.89,SW,221,5.0,16.0,85,0.00,,,0.00,VWS V14.01,2013-05-27 11:00:00,
2013-05-27 06:05:00,71.9,67.2,29.89,SE,143,11.0,12.0,85,0.00,,,0.00,VWS V14.01,2013-05-27 11:05:00,
2013-05-27 06:10:00,71.9,67.2,29.89,SE,135,8.0,13.0,85,0.00,,,0.00,VWS V14.01,2013-05-27 11:10:00,
2013-05-27 06:15:00,71.9,67.2,29.89,SSE,163,11.0,14.0,85,0.00,,,0.00,VWS V14.01,2013-05-27 11:15:00,
2013-05-27 06:20:00,71.9,67.2,29.89,SE,140,9.0,21.0,85,0.00,,,0.00,VWS V14.01,2013-05-27 11:20:00,
2013-05-27 06:25:00,72.0,67.2,29.89,South,169,4.0,14.0,85,0.00,,,0.00,VWS V14.01,2013-05-27 11:25:00,
2013-05-27 06:30:00,72.0,67.2,29.89,SE,140,13.0,14.0,85,0.00,,,0.00,VWS V14.01,2013-05-27 11:30:00,
2013-05-27 06:35:00,72.0,66.9,29.90,SE,144,14.0,18.0,84,0.00,,,0.00,VWS V14.01,2013-05-27 11:35:00,
2013-05-27 06:40:00,72.0,66.9,29.90,South,172,3.0,6.0,84,0.00,,,0.00,VWS V14.01,2013-05-27 11:40:00,
2013-05-27 06:45:00,72.0,66.9,29.90,SE,144,7.0,8.0,84,0.00,,,0.00,VWS V14.01,2013-05-27 11:45:00,
2013-05-27 06:50:00,72.0,66.9,29.91,South,178,6.0,12.0,84,0.00,,,0.00,VWS V14.01,2013-05-27 11:50:00,
2013-05-27 06:55:00,72.1,67.0,29.91,SSE,158,8.0,15.0,84,0.00,,,0.00,VWS V14.01,2013-05-27 11:55:00,
2013-05-27 07:00:00,72.1,67.0,29.91,SE,127,3.0,10.0,84,0.00,,,0.00,VWS V14.01,2013-05-27 12:00:00,
2013-05-27 07:05:00,72.2,67.1,29.91,SE,140,7.0,10.0,84,0.00,,,0.00,VWS V14.01,2013-05-27 12:05:00,
2013-05-27 07:10:00,72.2,67.1,29.91,SSW,194,6.0,17.0,84,0.00,,,0.00,VWS V14.01,2013-05-27 12:10:00,
2013-05-27 07:15:00,72.3,67.2,29.91,SE,124,7.0,12.0,84,0.00,,,0.00,VWS V14.01,2013-05-27 12:15:00,
2013-05-27 07:20:00,72.3,67.2,29.92,SSE,160,6.0,10.0,84,0.00,,,0.00,VWS V14.01,2013-05-27 12:20:00,
2013-05-27 07:25:00,72.3,67.2,29.92,South,183,3.0,6.0,84,0.00,,,0.00,VWS V14.01,2013-05-27 12:25:00,
2013-05-27 07:30:00,72.3,67.2,29.92,South,170,5.0,12.0,84,0.00,,,0.00,VWS V14.01,2013-05-27 12:30:00,
2013-05-27 07:35:00,72.4,67.3,29.92,SSE,167,8.0,12.0,84,0.00,,,0.00,VWS V14.01,2013-05-27 12:35:00,
2013-05-27 07:40:00,72.4,67.3,29.92,South,174,4.0,11.0,84,0.00,,,0.00,VWS V14.01,2013-05-27 12:40:00,
2013-05-27 07:45:00,72.4,67.3,29.92,SSE,163,9.0,15.0,84,0.00,,,0.00,VWS V14.01,2013-05-27 12:45:00,
2013-05-27 07:50:00,72.5,67.4,29.92,SSE,163,6.0,16.0,84,0.00,,,0.00,VWS V14.01,2013-05-27 12:50:00,
2013-05-27 07:55:00,72.6,67.5,29.92,SE,139,1.0,12.0,84,0.00,,,0.00,VWS V14.01,2013-05-27 12:55:00,
2013-05-27 08:00:00,72.7,67.6,29.92,South,173,5.0,9.0,84,0.00,,,0.00,VWS V14.01,2013-05-27 13:00:00,
2013-05-27 08:05:00,72.8,67.3,29.92,SE,133,8.0,9.0,83,0.00,,,0.00,VWS V14.01,2013-05-27 13:05:00,
2013-05-27 08:10:00,72.9,67.4,29.92,SSE,148,10.0,12.0,83,0.00,,,0.00,VWS V14.01,2013-05-27 13:10:00,
2013-05-27 08:15:00,73.1,67.6,29.92,SSE,159,8.0,12.0,83,0.00,,,0.00,VWS V14.01,2013-05-27 13:15:00,
2013-05-27 08:20:00,73.2,67.7,29.92,SE,134,9.0,10.0,83,0.00,,,0.00,VWS V14.01,2013-05-27 13:20:00,
2013-05-27 08:25:00,73.4,67.6,29.92,ESE,113,11.0,15.0,82,0.00,,,0.00,VWS V14.01,2013-05-27 13:25:00,
2013-05-27 08:30:00,73.5,67.7,29.92,South,184,10.0,11.0,82,0.00,,,0.00,VWS V14.01,2013-05-27 13:30:00,
2013-05-27 08:35:00,73.6,67.8,29.92,SSW,205,3.0,12.0,82,0.00,,,0.00,VWS V14.01,2013-05-27 13:35:00,
2013-05-27 08:40:00,73.8,67.6,29.92,SSE,149,8.0,16.0,81,0.00,,,0.00,VWS V14.01,2013-05-27 13:40:00,
2013-05-27 08:45:00,73.9,67.7,29.93,South,174,9.0,12.0,81,0.00,,,0.00,VWS V14.01,2013-05-27 13:45:00,
2013-05-27 08:50:00,74.2,68.0,29.93,SSW,203,4.0,7.0,81,0.00,,,0.00,VWS V14.01,2013-05-27 13:50:00,
2013-05-27 08:55:00,74.4,67.8,29.92,SE,145,8.0,9.0,80,0.00,,,0.00,VWS V14.01,2013-05-27 13:55:00,
2013-05-27 09:00:00,74.4,67.5,29.93,South,178,10.0,12.0,79,0.00,,,0.00,VWS V14.01,2013-05-27 14:00:00,
2013-05-27 09:05:00,74.4,67.5,29.93,SSE,164,13.0,19.0,79,0.00,,,0.00,VWS V14.01,2013-05-27 14:05:00,
2013-05-27 09:10:00,74.4,67.5,29.93,South,191,4.0,12.0,79,0.00,,,0.00,VWS V14.01,2013-05-27 14:10:00,
2013-05-27 09:15:00,74.4,67.5,29.93,South,174,9.0,13.0,79,0.00,,,0.00,VWS V14.01,2013-05-27 14:15:00,
2013-05-27 09:20:00,74.5,67.9,29.93,SSE,161,5.0,7.0,80,0.00,,,0.00,VWS V14.01,2013-05-27 14:20:00,
2013-05-27 09:25:00,74.6,67.7,29.93,SSW,203,7.0,11.0,79,0.00,,,0.00,VWS V14.01,2013-05-27 14:25:00,
2013-05-27 09:30:00,74.6,67.7,29.93,South,183,14.0,18.0,79,0.00,,,0.00,VWS V14.01,2013-05-27 14:30:00,
2013-05-27 09:35:00,74.6,67.7,29.93,South,190,10.0,11.0,79,0.00,,,0.00,VWS V14.01,2013-05-27 14:35:00,
2013-05-27 09:40:00,74.6,67.7,29.93,SSE,151,7.0,13.0,79,0.00,,,0.00,VWS V14.01,2013-05-27 14:40:00,
2013-05-27 09:45:00,74.6,67.7,29.93,South,181,4.0,11.0,79,0.00,,,0.00,VWS V14.01,2013-05-27 14:45:00,
2013-05-27 09:50:00,74.8,67.9,29.92,SSE,150,7.0,12.0,79,0.00,,,0.00,VWS V14.01,2013-05-27 14:50:00,
2013-05-27 09:55:00,75.2,68.2,29.92,SSE,165,4.0,7.0,79,0.00,,,0.00,VWS V14.01,2013-05-27 14:55:00,
2013-05-27 10:00:00,75.5,68.2,29.92,SSW,203,7.0,10.0,78,0.00,,,0.00,VWS V14.01,2013-05-27 15:00:00,
2013-05-27 10:05:00,75.6,67.9,29.92,SE,141,12.0,13.0,77,0.00,,,0.00,VWS V14.01,2013-05-27 15:05:00,
2013-05-27 10:10:00,75.5,67.8,29.92,SSE,162,16.0,18.0,77,0.00,,,0.00,VWS V14.01,2013-05-27 15:10:00,
2013-05-27 10:15:00,75.5,67.8,29.92,ESE,122,8.0,9.0,77,0.00,,,0.00,VWS V14.01,2013-05-27 15:15:00,
2013-05-27 10:20:00,75.5,68.2,29.92,South,171,10.0,10.0,78,0.00,,,0.00,VWS V14.01,2013-05-27 15:20:00,
2013-05-27 10:25:00,75.6,67.9,29.92,SSE,152,12.0,14.0,77,0.00,,,0.00,VWS V14.01,2013-05-27 15:25:00,
2013-05-27 10:30:00,75.8,68.1,29.92,South,169,5.0,9.0,77,0.00,,,0.00,VWS V14.01,2013-05-27 15:30:00,
2013-05-27 10:35:00,76.2,68.5,29.92,ESE,121,5.0,9.0,77,0.00,,,0.00,VWS V14.01,2013-05-27 15:35:00,
2013-05-27 10:40:00,76.2,68.5,29.92,SE,140,3.0,9.0,77,0.00,,,0.00,VWS V14.01,2013-05-27 15:40:00,
2013-05-27 10:45:00,77.0,68.5,29.92,ESE,115,10.0,13.0,75,0.00,,,0.00,VWS V14.01,2013-05-27 15:45:00,
2013-05-27 10:50:00,77.0,68.1,29.92,South,178,9.0,10.0,74,0.00,,,0.00,VWS V14.01,2013-05-27 15:50:00,
2013-05-27 10:55:00,77.0,68.1,29.92,South,176,9.0,15.0,74,0.00,,,0.00,VWS V14.01,2013-05-27 15:55:00,
2013-05-27 11:00:00,76.9,68.0,29.92,SE,141,4.0,8.0,74,0.00,,,0.00,VWS V14.01,2013-05-27 16:00:00,
2013-05-27 11:05:00,77.0,68.5,29.91,SSE,152,7.0,9.0,75,0.00,,,0.00,VWS V14.01,2013-05-27 16:05:00,
2013-05-27 11:10:00,77.1,68.6,29.91,SE,140,7.0,13.0,75,0.00,,,0.00,VWS V14.01,2013-05-27 16:10:00,
2013-05-27 11:15:00,77.2,68.3,29.91,SSE,163,9.0,16.0,74,0.00,,,0.00,VWS V14.01,2013-05-27 16:15:00,
2013-05-27 11:20:00,77.2,68.3,29.91,North,360,5.0,11.0,74,0.00,,,0.00,VWS V14.01,2013-05-27 16:20:00,
2013-05-27 11:25:00,77.3,68.8,29.91,SE,138,5.0,8.0,75,0.00,,,0.00,VWS V14.01,2013-05-27 16:25:00,
2013-05-27 11:30:00,77.5,69.0,29.91,WSW,242,6.0,14.0,75,0.00,,,0.00,VWS V14.01,2013-05-27 16:30:00,
2013-05-27 11:35:00,77.9,68.6,29.91,South,178,9.0,9.0,73,0.00,,,0.00,VWS V14.01,2013-05-27 16:35:00,
2013-05-27 11:40:00,78.1,68.8,29.91,SSE,148,4.0,8.0,73,0.00,,,0.00,VWS V14.01,2013-05-27 16:40:00,
2013-05-27 11:45:00,78.2,68.8,29.91,SSW,213,5.0,13.0,73,0.00,,,0.00,VWS V14.01,2013-05-27 16:45:00,
2013-05-27 11:50:00,78.3,68.9,29.91,SE,141,6.0,11.0,73,0.00,,,0.00,VWS V14.01,2013-05-27 16:50:00,
2013-05-27 11:55:00,78.4,69.0,29.91,South,171,8.0,18.0,73,0.00,,,0.00,VWS V14.01,2013-05-27 16:55:00,
2013-05-27 12:00:00,78.3,68.9,29.91,ESE,119,14.0,14.0,73,0.00,,,0.00,VWS V14.01,2013-05-27 17:00:00,
2013-05-27 12:05:00,78.6,69.6,29.91,South,190,7.0,17.0,74,0.00,,,0.00,VWS V14.01,2013-05-27 17:05:00,
2013-05-27 12:10:00,78.9,69.1,29.91,SE,144,13.0,13.0,72,0.00,,,0.00,VWS V14.01,2013-05-27 17:10:00,
2013-05-27 12:15:00,79.0,69.2,29.91,East,93,6.0,9.0,72,0.00,,,0.00,VWS V14.01,2013-05-27 17:15:00,
2013-05-27 12:20:00,79.3,69.5,29.90,South,169,9.0,11.0,72,0.00,,,0.00,VWS V14.01,2013-05-27 17:20:00,
2013-05-27 12:25:00,79.4,69.2,29.91,SSE,162,3.0,16.0,71,0.00,,,0.00,VWS V14.01,2013-05-27 17:25:00,
2013-05-27 12:30:00,79.5,68.9,29.90,SSE,167,12.0,16.0,70,0.00,,,0.00,VWS V14.01,2013-05-27 17:30:00,
2013-05-27 12:35:00,79.7,69.1,29.90,SSE,153,11.0,13.0,70,0.00,,,0.00,VWS V14.01,2013-05-27 17:35:00,
2013-05-27 12:40:00,79.8,69.2,29.90,South,182,8.0,12.0,70,0.00,,,0.00,VWS V14.01,2013-05-27 17:40:00,
2013-05-27 12:45:00,79.7,69.1,29.90,SSE,163,8.0,9.0,70,0.00,,,0.00,VWS V14.01,2013-05-27 17:45:00,
2013-05-27 12:50:00,79.7,69.1,29.90,SW,234,2.0,8.0,70,0.00,,,0.00,VWS V14.01,2013-05-27 17:50:00,
2013-05-27 12:55:00,79.8,69.2,29.90,SE,144,3.0,21.0,70,0.00,,,0.00,VWS V14.01,2013-05-27 17:55:00,
2013-05-27 13:00:00,80.0,69.3,29.90,SSE,155,2.0,11.0,70,0.00,,,0.00,VWS V14.01,2013-05-27 18:00:00,
2013-05-27 13:05:00,80.2,69.5,29.90,South,181,9.0,15.0,70,0.00,,,0.00,VWS V14.01,2013-05-27 18:05:00,
2013-05-27 13:10:00,80.2,69.1,29.90,South,173,8.0,18.0,69,0.00,,,0.00,VWS V14.01,2013-05-27 18:10:00,
2013-05-27 13:15:00,80.2,69.5,29.89,SE,126,6.0,11.0,70,0.00,,,0.00,VWS V14.01,2013-05-27 18:15:00,
2013-05-27 13:20:00,80.3,69.2,29.89,South,172,4.0,14.0,69,0.00,,,0.00,VWS V14.01,2013-05-27 18:20:00,
2013-05-27 13:25:00,80.4,69.3,29.89,ESE,121,13.0,13.0,69,0.00,,,0.00,VWS V14.01,2013-05-27 18:25:00,
2013-05-27 13:30:00,80.8,70.1,29.89,SE,140,10.0,12.0,70,0.00,,,0.00,VWS V14.01,2013-05-27 18:30:00,
2013-05-27 13:35:00,81.2,70.1,29.89,South,176,15.0,17.0,69,0.00,,,0.00,VWS V14.01,2013-05-27 18:35:00,
2013-05-27 13:40:00,81.3,69.7,29.89,South,171,5.0,12.0,68,0.00,,,0.00,VWS V14.01,2013-05-27 18:40:00,
2013-05-27 13:45:00,81.4,69.8,29.88,South,182,11.0,16.0,68,0.00,,,0.00,VWS V14.01,2013-05-27 18:45:00,
2013-05-27 13:50:00,81.6,70.0,29.88,South,180,14.0,14.0,68,0.00,,,0.00,VWS V14.01,2013-05-27 18:50:00,
2013-05-27 13:55:00,81.6,69.6,29.88,SSW,203,10.0,16.0,67,0.00,,,0.00,VWS V14.01,2013-05-27 18:55:00,
2013-05-27 14:00:00,81.5,69.5,29.88,SSE,163,4.0,9.0,67,0.00,,,0.00,VWS V14.01,2013-05-27 19:00:00,
2013-05-27 14:05:00,81.6,69.2,29.88,South,186,8.0,15.0,66,0.00,,,0.00,VWS V14.01,2013-05-27 19:05:00,
2013-05-27 14:10:00,81.6,69.6,29.88,South,177,14.0,18.0,67,0.00,,,0.00,VWS V14.01,2013-05-27 19:10:00,
2013-05-27 14:15:00,81.6,69.6,29.88,SE,146,16.0,16.0,67,0.00,,,0.00,VWS V14.01,2013-05-27 19:15:00,
2013-05-27 14:20:00,81.7,69.2,29.87,SSE,165,7.0,14.0,66,0.00,,,0.00,VWS V14.01,2013-05-27 19:20:00,
2013-05-27 14:25:00,81.9,69.4,29.87,SE,132,12.0,19.0,66,0.00,,,0.00,VWS V14.01,2013-05-27 19:25:00,
2013-05-27 14:30:00,82.2,69.7,29.87,SSE,167,6.0,11.0,66,0.00,,,0.00,VWS V14.01,2013-05-27 19:30:00,
2013-05-27 14:35:00,82.4,69.9,29.87,SSE,158,6.0,11.0,66,0.00,,,0.00,VWS V14.01,2013-05-27 19:35:00,
2013-05-27 14:40:00,82.6,70.1,29.87,South,184,6.0,6.0,66,0.00,,,0.00,VWS V14.01,2013-05-27 19:40:00,
2013-05-27 14:45:00,82.6,70.1,29.86,SSE,161,11.0,12.0,66,0.00,,,0.00,VWS V14.01,2013-05-27 19:45:00,
2013-05-27 14:50:00,82.6,70.1,29.86,SSE,148,4.0,13.0,66,0.00,,,0.00,VWS V14.01,2013-05-27 19:50:00,
2013-05-27 14:55:00,82.6,70.1,29.86,SE,132,15.0,18.0,66,0.00,,,0.00,VWS V14.01,2013-05-27 19:55:00,
2013-05-27 15:00:00,82.6,70.1,29.86,South,173,3.0,13.0,66,0.00,,,0.00,VWS V14.01,2013-05-27 20:00:00,
2013-05-27 15:05:00,82.6,70.1,29.86,SSW,198,7.0,15.0,66,0.00,,,0.00,VWS V14.01,2013-05-27 20:05:00,
2013-05-27 15:10:00,82.6,70.1,29.86,SE,130,4.0,9.0,66,0.00,,,0.00,VWS V14.01,2013-05-27 20:10:00,
2013-05-27 15:15:00,82.6,70.1,29.85,SSE,147,2.0,5.0,66,0.00,,,0.00,VWS V14.01,2013-05-27 20:15:00,
2013-05-27 15:20:00,82.6,70.1,29.85,ESE,111,8.0,9.0,66,0.00,,,0.00,VWS V14.01,2013-05-27 20:20:00,
2013-05-27 15:25:00,83.2,69.8,29.85,South,188,6.0,11.0,64,0.00,,,0.00,VWS V14.01,2013-05-27 20:25:00,
2013-05-27 15:30:00,82.9,69.0,29.85,ESE,109,18.0,18.0,63,0.00,,,0.00,VWS V14.01,2013-05-27 20:30:00,
2013-05-27 15:35:00,82.8,69.4,29.85,SSE,168,6.0,17.0,64,0.00,,,0.00,VWS V14.01,2013-05-27 20:35:00,
2013-05-27 15:40:00,82.7,69.3,29.84,South,169,15.0,15.0,64,0.00,,,0.00,VWS V14.01,2013-05-27 20:40:00,
2013-05-27 15:45:00,82.7,69.3,29.84,South,180,13.0,13.0,64,0.00,,,0.00,VWS V14.01,2013-05-27 20:45:00,
2013-05-27 15:50:00,82.7,69.3,29.84,SSE,156,8.0,10.0,64,0.00,,,0.00,VWS V14.01,2013-05-27 20:50:00,
2013-05-27 15:55:00,82.8,69.4,29.84,SE,137,11.0,13.0,64,0.00,,,0.00,VWS V14.01,2013-05-27 20:55:00,
2013-05-27 16:00:00,82.9,69.5,29.84,SE,131,5.0,13.0,64,0.00,,,0.00,VWS V14.01,2013-05-27 21:00:00,
2013-05-27 16:05:00,83.0,69.1,29.83,SSE,148,14.0,17.0,63,0.00,,,0.00,VWS V14.01,2013-05-27 21:05:00,
2013-05-27 16:10:00,83.2,69.3,29.83,SE,132,5.0,11.0,63,0.00,,,0.00,VWS V14.01,2013-05-27 21:10:00,
2013-05-27 16:15:00,83.7,70.2,29.83,South,182,5.0,11.0,64,0.00,,,0.00,VWS V14.01,2013-05-27 21:15:00,
2013-05-27 16:20:00,84.2,69.8,29.82,ESE,112,11.0,11.0,62,0.00,,,0.00,VWS V14.01,2013-05-27 21:20:00,
2013-05-27 16:25:00,84.4,69.5,29.82,SSE,163,4.0,14.0,61,0.00,,,0.00,VWS V14.01,2013-05-27 21:25:00,
2013-05-27 16:30:00,84.3,69.9,29.82,South,175,7.0,8.0,62,0.00,,,0.00,VWS V14.01,2013-05-27 21:30:00,
2013-05-27 16:35:00,84.7,69.8,29.82,SE,138,3.0,7.0,61,0.00,,,0.00,VWS V14.01,2013-05-27 21:35:00,
2013-05-27 16:40:00,84.8,70.3,29.81,SSW,198,13.0,17.0,62,0.00,,,0.00,VWS V14.01,2013-05-27 21:40:00,
2013-05-27 16:45:00,84.8,69.9,29.81,ESE,117,5.0,11.0,61,0.00,,,0.00,VWS V14.01,2013-05-27 21:45:00,
2013-05-27 16:50:00,84.9,70.0,29.81,ENE,71,10.0,19.0,61,0.00,,,0.00,VWS V14.01,2013-05-27 21:50:00,
2013-05-27 16:55:00,84.8,69.9,29.80,South,176,8.0,11.0,61,0.00,,,0.00,VWS V14.01,2013-05-27 21:55:00,
2013-05-27 17:00:00,85.0,70.5,29.80,SE,140,6.0,9.0,62,0.00,,,0.00,VWS V14.01,2013-05-27 22:00:00,
2013-05-27 17:05:00,85.3,69.8,29.80,South,171,13.0,19.0,60,0.00,,,0.00,VWS V14.01,2013-05-27 22:05:00,
2013-05-27 17:10:00,85.4,69.4,29.80,SE,145,3.0,9.0,59,0.00,,,0.00,VWS V14.01,2013-05-27 22:10:00,
2013-05-27 17:15:00,85.6,69.6,29.80,South,177,7.0,13.0,59,0.00,,,0.00,VWS V14.01,2013-05-27 22:15:00,
2013-05-27 17:20:00,85.7,69.7,29.79,SSW,200,5.0,11.0,59,0.00,,,0.00,VWS V14.01,2013-05-27 22:20:00,
2013-05-27 17:25:00,86.1,69.6,29.79,ESE,123,5.0,14.0,58,0.00,,,0.00,VWS V14.01,2013-05-27 22:25:00,
2013-05-27 17:30:00,86.1,69.1,29.79,SE,132,13.0,15.0,57,0.00,,,0.00,VWS V14.01,2013-05-27 22:30:00,
2013-05-27 17:35:00,85.9,69.4,29.79,South,181,6.0,10.0,58,0.00,,,0.00,VWS V14.01,2013-05-27 22:35:00,
2013-05-27 17:40:00,86.0,70.0,29.78,SE,132,10.0,13.0,59,0.00,,,0.00,VWS V14.01,2013-05-27 22:40:00,
2013-05-27 17:45:00,86.0,70.0,29.78,South,175,6.0,11.0,59,0.00,,,0.00,VWS V14.01,2013-05-27 22:45:00,
2013-05-27 17:50:00,86.1,69.6,29.78,South,170,8.0,17.0,58,0.00,,,0.00,VWS V14.01,2013-05-27 22:50:00,
2013-05-27 17:55:00,86.1,70.1,29.77,SSE,163,8.0,14.0,59,0.00,,,0.00,VWS V14.01,2013-05-27 22:55:00,
2013-05-27 18:00:00,86.0,69.5,29.77,SE,138,13.0,17.0,58,0.00,,,0.00,VWS V14.01,2013-05-27 23:00:00,
2013-05-27 18:05:00,85.6,69.1,29.77,South,178,9.0,9.0,58,0.00,,,0.00,VWS V14.01,2013-05-27 23:05:00,
2013-05-27 18:10:00,85.4,69.0,29.77,South,182,5.0,15.0,58,0.00,,,0.00,VWS V14.01,2013-05-27 23:10:00,
2013-05-27 18:15:00,85.5,69.6,29.76,SSW,194,16.0,16.0,59,0.00,,,0.00,VWS V14.01,2013-05-27 23:15:00,
2013-05-27 18:20:00,85.5,69.6,29.76,ESE,109,3.0,5.0,59,0.00,,,0.00,VWS V14.01,2013-05-27 23:20:00,
2013-05-27 18:25:00,85.7,69.2,29.75,South,182,10.0,10.0,58,0.00,,,0.00,VWS V14.01,2013-05-27 23:25:00,
2013-05-27 18:30:00,85.6,68.6,29.75,South,186,11.0,13.0,57,0.00,,,0.00,VWS V14.01,2013-05-27 23:30:00,
2013-05-27 18:35:00,85.4,69.0,29.75,SE,136,7.0,14.0,58,0.00,,,0.00,VWS V14.01,2013-05-27 23:35:00,
2013-05-27 18:40:00,85.2,68.8,29.74,SSW,211,8.0,11.0,58,0.00,,,0.00,VWS V14.01,2013-05-27 23:40:00,
2013-05-27 18:45:00,85.2,69.3,29.74,SE,142,6.0,18.0,59,0.00,,,0.00,VWS V14.01,2013-05-27 23:45:00,
2013-05-27 18:50:00,85.1,69.2,29.74,SE,146,13.0,14.0,59,0.00,,,0.00,VWS V14.01,2013-05-27 23:50:00,
2013-05-27 18:55:00,84.9,69.0,29.74,South,180,6.0,7.0,59,0.00,,,0.00,VWS V14.01,2013-05-27 23:55:00,
2013-05-27 18:59:00,84.7,68.8,29.74,SSE,152,15.0,15.0,59,0.00,,,0.00,VWS V14.01,2013-05-27 23:59:00,
2013-05-27 19:04:00,84.4,68.5,29.74,SSW,192,4.0,12.0,59,0.00,,,0.00,VWS V14.01,2013-05-28 00:04:00,
2013-05-27 19:09:00,84.2,68.3,29.75,East,101,10.0,11.0,59,0.00,,,0.00,VWS V14.01,2013-05-28 00:09:00,
2013-05-27 19:14:00,84.2,68.3,29.74,ESE,109,4.0,12.0,59,0.00,,,0.00,VWS V14.01,2013-05-28 00:14:00,
2013-05-27 19:19:00,84.1,68.7,29.75,South,182,8.0,10.0,60,0.00,,,0.00,VWS V14.01,2013-05-28 00:19:00,
2013-05-27 19:24:00,84.0,68.6,29.75,SE,138,1.0,7.0,60,0.00,,,0.00,VWS V14.01,2013-05-28 00:24:00,
2013-05-27 19:29:00,83.9,68.5,29.75,SSE,148,4.0,9.0,60,0.00,,,0.00,VWS V14.01,2013-05-28 00:29:00,
2013-05-27 19:34:00,83.9,68.5,29.75,East,79,6.0,7.0,60,0.00,,,0.00,VWS V14.01,2013-05-28 00:34:00,
2013-05-27 19:39:00,83.8,68.4,29.75,SE,143,12.0,12.0,60,0.00,,,0.00,VWS V14.01,2013-05-28 00:39:00,
2013-05-27 19:44:00,83.8,68.4,29.75,South,172,6.0,13.0,60,0.00,,,0.00,VWS V14.01,2013-05-28 00:44:00,
2013-05-27 19:49:00,83.7,68.3,29.75,South,179,2.0,4.0,60,0.00,,,0.00,VWS V14.01,2013-05-28 00:49:00,
2013-05-27 19:54:00,83.6,68.3,29.75,SE,137,8.0,10.0,60,0.00,,,0.00,VWS V14.01,2013-05-28 00:54:00,
2013-05-27 19:59:00,83.5,68.2,29.76,SSE,161,2.0,9.0,60,0.00,,,0.00,VWS V14.01,2013-05-28 00:59:00,
2013-05-27 20:04:00,83.4,68.6,29.76,South,191,8.0,8.0,61,0.00,,,0.00,VWS V14.01,2013-05-28 01:04:00,
2013-05-27 20:09:00,83.3,68.5,29.76,SE,142,5.0,5.0,61,0.00,,,0.00,VWS V14.01,2013-05-28 01:09:00,
2013-05-27 20:14:00,83.2,68.4,29.76,SSE,150,2.0,4.0,61,0.00,,,0.00,VWS V14.01,2013-05-28 01:14:00,
2013-05-27 20:19:00,83.0,68.7,29.76,ESE,119,5.0,9.0,62,0.00,,,0.00,VWS V14.01,2013-05-28 01:19:00,
2013-05-27 20:24:00,82.9,68.6,29.76,East,98,5.0,5.0,62,0.00,,,0.00,VWS V14.01,2013-05-28 01:24:00,
2013-05-27 20:29:00,82.7,68.4,29.76,SE,145,4.0,4.0,62,0.00,,,0.00,VWS V14.01,2013-05-28 01:29:00,
2013-05-27 20:34:00,82.6,68.3,29.76,SW,215,4.0,8.0,62,0.00,,,0.00,VWS V14.01,2013-05-28 01:34:00,
2013-05-27 20:39:00,82.5,68.6,29.76,South,183,3.0,4.0,63,0.00,,,0.00,VWS V14.01,2013-05-28 01:39:00,
2013-05-27 20:44:00,82.4,68.6,29.76,SE,124,3.0,5.0,63,0.00,,,0.00,VWS V14.01,2013-05-28 01:44:00,
2013-05-27 20:49:00,82.3,68.5,29.76,SE,146,7.0,9.0,63,0.00,,,0.00,VWS V14.01,2013-05-28 01:49:00,
2013-05-27 20:54:00,82.3,68.5,29.77,SSE,165,7.0,10.0,63,0.00,,,0.00,VWS V14.01,2013-05-28 01:54:00,
2013-05-27 20:59:00,82.2,68.4,29.76,SSE,150,3.0,7.0,63,0.00,,,0.00,VWS V14.01,2013-05-28 01:59:00,
2013-05-27 21:04:00,82.1,68.3,29.76,SE,143,10.0,10.0,63,0.00,,,0.00,VWS V14.01,2013-05-28 02:04:00,
2013-05-27 21:09:00,82.0,68.2,29.76,SE,125,4.0,4.0,63,0.00,,,0.00,VWS V14.01,2013-05-28 02:09:00,
2013-05-27 21:14:00,82.0,68.2,29.76,SSE,155,1.0,2.0,63,0.00,,,0.00,VWS V14.01,2013-05-28 02:14:00,
2013-05-27 21:19:00,81.9,68.1,29.77,SSE,159,0.0,1.0,63,0.00,,,0.00,VWS V14.01,2013-05-28 02:19:00,
2013-05-27 21:24:00,81.8,68.4,29.77,SSE,161,2.0,6.0,64,0.00,,,0.00,VWS V14.01,2013-05-28 02:24:00,
2013-05-27 21:29:00,81.7,68.3,29.77,SE,136,5.0,6.0,64,0.00,,,0.00,VWS V14.01,2013-05-28 02:29:00,
2013-05-27 21:34:00,81.6,68.2,29.77,SE,142,2.0,3.0,64,0.00,,,0.00,VWS V14.01,2013-05-28 02:34:00,
2013-05-27 21:39:00,81.4,68.5,29.77,ESE,105,3.0,7.0,65,0.00,,,0.00,VWS V14.01,2013-05-28 02:39:00,
2013-05-27 21:44:00,81.3,68.4,29.77,ESE,118,3.0,4.0,65,0.00,,,0.00,VWS V14.01,2013-05-28 02:44:00,
2013-05-27 21:49:00,81.2,68.3,29.78,ESE,105,4.0,4.0,65,0.00,,,0.00,VWS V14.01,2013-05-28 02:49:00,
2013-05-27 21:54:00,81.1,68.7,29.78,ESE,103,8.0,8.0,66,0.00,,,0.00,VWS V14.01,2013-05-28 02:54:00,
2013-05-27 21:59:00,80.9,68.5,29.78,SSE,159,11.0,11.0,66,0.00,,,0.00,VWS V14.01,2013-05-28 02:59:00,
2013-05-27 22:04:00,80.8,68.4,29.79,SSE,167,3.0,9.0,66,0.00,,,0.00,VWS V14.01,2013-05-28 03:04:00,
2013-05-27 22:09:00,80.7,68.7,29.79,SE,128,2.0,3.0,67,0.00,,,0.00,VWS V14.01,2013-05-28 03:09:00,
2013-05-27 22:14:00,80.7,68.7,29.79,ESE,115,3.0,5.0,67,0.00,,,0.00,VWS V14.01,2013-05-28 03:14:00,
2013-05-27 22:19:00,80.6,68.6,29.79,SE,134,5.0,5.0,67,0.00,,,0.00,VWS V14.01,2013-05-28 03:19:00,
2013-05-27 22:24:00,80.5,69.0,29.79,East,94,3.0,6.0,68,0.00,,,0.00,VWS V14.01,2013-05-28 03:24:00,
2013-05-27 22:29:00,80.4,68.9,29.80,East,92,1.0,5.0,68,0.00,,,0.00,VWS V14.01,2013-05-28 03:29:00,
2013-05-27 22:34:00,80.3,69.2,29.79,SE,132,7.0,7.0,69,0.00,,,0.00,VWS V14.01,2013-05-28 03:34:00,
2013-05-27 22:39:00,80.2,69.1,29.80,ESE,113,9.0,11.0,69,0.00,,,0.00,VWS V14.01,2013-05-28 03:39:00,
2013-05-27 22:44:00,80.1,69.0,29.80,ESE,109,8.0,8.0,69,0.00,,,0.00,VWS V14.01,2013-05-28 03:44:00,
2013-05-27 22:49:00,80.0,68.9,29.79,ESE,122,4.0,4.0,69,0.00,,,0.00,VWS V14.01,2013-05-28 03:49:00,
2013-05-27 22:54:00,80.0,68.9,29.80,SE,130,5.0,9.0,69,0.00,,,0.00,VWS V14.01,2013-05-28 03:54:00,
2013-05-27 22:59:00,80.0,68.9,29.79,SSE,154,8.0,10.0,69,0.00,,,0.00,VWS V14.01,2013-05-28 03:59:00,
2013-05-27 23:01:00,79.9,68.8,29.79,SE,134,4.0,11.0,69,0.00,,,0.00,VWS V14.01,2013-05-28 04:01:00,
2013-05-27 23:06:00,79.9,69.2,29.80,South,174,7.0,9.0,70,0.00,,,0.00,VWS V14.01,2013-05-28 04:06:00,
2013-05-27 23:11:00,79.9,69.2,29.80,SE,126,6.0,7.0,70,0.00,,,0.00,VWS V14.01,2013-05-28 04:11:00,
2013-05-27 23:16:00,79.8,69.2,29.80,SE,142,8.0,11.0,70,0.00,,,0.00,VWS V14.01,2013-05-28 04:16:00,
2013-05-27 23:21:00,79.8,69.2,29.79,ESE,114,2.0,13.0,70,0.00,,,0.00,VWS V14.01,2013-05-28 04:21:00,
2013-05-27 23:26:00,79.7,69.1,29.80,SSE,157,4.0,13.0,70,0.00,,,0.00,VWS V14.01,2013-05-28 04:26:00,
2013-05-27 23:31:00,79.7,69.1,29.80,SE,145,1.0,7.0,70,0.00,,,0.00,VWS V14.01,2013-05-28 04:31:00,
2013-05-27 23:36:00,79.6,69.0,29.80,South,190,3.0,10.0,70,0.00,,,0.00,VWS V14.01,2013-05-28 04:36:00,
2013-05-27 23:41:00,79.5,68.9,29.80,SE,133,4.0,8.0,70,0.00,,,0.00,VWS V14.01,2013-05-28 04:41:00,
2013-05-27 23:46:00,79.4,68.8,29.80,ESE,111,7.0,13.0,70,0.00,,,0.00,VWS V14.01,2013-05-28 04:46:00,
2013-05-27 23:51:00,79.4,69.2,29.80,SSE,163,9.0,11.0,71,0.00,,,0.00,VWS V14.01,2013-05-28 04:51:00,
2013-05-27 23:56:00,79.4,69.2,29.80,ESE,102,7.0,10.0,71,0.00,,,0.00,VWS V14.01,2013-05-28 04:56:00,